User: anonymous   Login
Location: Burla
(50.9568°N, 10.4983°E)
Time: 12:36:20
(UTC+00:00)
Language:

CORIOLIS - Orbit

View from above orbital plane
View from above orbital plane
View from above satellite
View from above satellite

Ground track
Ground track

The orbit is defined by the following mean orbital elements,

1 27640U          26072.92764286 +.00000000 +00000-0 +10141-3 0 00003
2 27640  98.7160  81.2566 0014944 124.9983 235.2598 14.19914591    06
Epoch (UTC): 13 March 2026 22:15:48
Eccentricity: 0.0014944
inclination: 98.7160°
perigee height: 815 km
apogee height: 836 km
right ascension of ascending node: 81.2566°
argument of perigee: 124.9983°
revolutions per day: 14.19914591
mean anomaly at epoch: 235.2598°

The dashed part of the orbit path shows where the satellite is in the earth's shadow,  

DLR